Hourly Data Report for December 29, 2018

EUREKA CLIMATE
NUNAVUT
Current Station Operator: ECCC - MSC

79°59'21.000" N
85°56'02.000" W
10.00 m
2401199
71613
NEK

Download Data

Hourly Data (December 2018)
Hourly Data Report for December 29, 2018
TIME
LST
Temp Definition
°C
Dew Point Definition
°C
Rel Hum Definition
%
Precip. Amount Definition
mm

Wind Dir Definition
10's deg

Wind Spd Definition
km/h
Visibility Definition
km
Stn Press Definition
kPa
Hmdx Definition


Wind Chill Definition


Weather Definition


00:00 -33.4 -36.6 72 0.0 10 24   102.10   -49 LegendNANA
01:00 -33.0 -36.2 73 0.0 10 24   102.05   -48 LegendNANA
02:00 -33.1 -36.3 73 0.0 11 26   102.03   -49 LegendNANA
03:00 -33.0 -36.2 73 0.0 10 25   101.99   -48 LegendNANA
04:00 -32.9 -36.1 73 0.0 10 22   101.98   -47 LegendNANA
05:00 -32.7 -35.9 73 0.0 11 26   101.96   -48 LegendNANA
06:00 -32.2 -35.3 74 0.0 11 28   101.92   -48 LegendNANA
07:00 -32.6 -35.7 73 0.0 10 26   101.90   -48 LegendNANA
08:00 -32.6 -35.7 73 0.0 11 29   101.86   -49 LegendNANA
09:00 -32.1 -35.3 74 0.0 11 24   101.85   -47 LegendNANA
10:00 -31.9 -35.0 74 0.0 11 30   101.85   -48 LegendNANA
11:00 -32.1 -35.2 74 0.0 10 23   101.82   -47 LegendNANA
12:00 -32.3 -35.5 74 0.0 11 26   101.80   -48 LegendNANA
13:00 -32.0 -35.1 74 0.0 10 25   101.80   -47 LegendNANA
14:00 -32.4 -35.6 73 0.0 10 23   101.79   -47 LegendNANA
15:00 -32.4 -35.6 74 0.0 11 26   101.78   -48 LegendNANA
16:00 -32.2 -35.4 74 0.0 10 24   101.78   -47 LegendNANA
17:00 -32.2 -35.3 74 0.0 11 27   101.75   -48 LegendNANA
18:00 -32.4 -35.5 74 0.0 9 22   101.73   -47 LegendNANA
19:00 -33.0 -36.2 73 0.0 10 22   101.70   -47 LegendNANA
20:00 -32.9 -36.1 73 0.0 10 26   101.66   -48 LegendNANA
21:00 -33.8 -37.1 72 0.0 10 19   101.65   -48 LegendNANA
22:00 -33.3 -36.5 73 0.0 9 17   101.58   -46 LegendNANA
23:00 -34.0 -37.3 72 0.0 8 17   101.54   -47 LegendNANA

Notes on Data Quality.

Legend

  • E = Estimated
  • M = Missing
  • NA = Not Available*
  • [empty] = Indicates an unobserved value
Date modified: